When you browse on this site, cookies collect data to enhance your experience and personalize the content and advertising you see.
Visit our Privacy Policy to learn more. By continuing to use the site, you agree to this use of cookies and data.
  • In Netherlands
  • List of Countries
  • For 7 days
  • Water Temperature
  • Satellite Maps
  • Weather Map
  • Weather Widgets
  • user-avatar
    Login

    Hourly Weather Kyrdzhali

    Today, 17 July, Wednesday

    Time Temperature Precipitation Wind Pressure Humidity
    00:00 +17°C° 0 mm 2 mps 722 mmHg 89%
    01:00 +17°C° 0 mm 2 mps 722 mmHg 90%
    02:00 +16°C° 0 mm 2 mps 722 mmHg 92%
    03:00 +16°C° 0 mm 2 mps 722 mmHg 91%
    04:00 +16°C° 0 mm 2 mps 722 mmHg 91%
    05:00 +16°C° 0 mm 3 mps 722 mmHg 91%
    06:00 +17°C° 0 mm 3 mps 722 mmHg 84%
    07:00 +19°C° 0 mm 4 mps 722 mmHg 78%
    08:00 +20°C° 0 mm 5 mps 723 mmHg 70%
    09:00 +22°C° 0 mm 5 mps 723 mmHg 64%
    10:00 +23°C° 0 mm 5 mps 723 mmHg 59%
    11:00 +24°C° 0 mm 6 mps 723 mmHg 53%
    12:00 +24°C° 0 mm 6 mps 723 mmHg 50%
    13:00 +26°C° 0 mm 5 mps 723 mmHg 48%
    14:00 +27°C° 0 mm 5 mps 723 mmHg 46%
    15:00 +26°C° 0 mm 5 mps 723 mmHg 47%
    16:00 +26°C° 0 mm 5 mps 723 mmHg 48%
    17:00 +26°C° 0 mm 4 mps 723 mmHg 50%
    18:00 +23°C° 0 mm 4 mps 723 mmHg 55%
    19:00 +22°C° 0 mm 3 mps 722 mmHg 61%
    20:00 +20°C° 0 mm 2 mps 722 mmHg 66%
    21:00 +19°C° 0 mm 2 mps 723 mmHg 67%
    22:00 +20°C° 0 mm 1 mps 723 mmHg 68%
    23:00 +19°C° 0 mm 1 mps 723 mmHg 69%

    Tomorrow, 18 July, Thursday

    Time Temperature Precipitation Wind Pressure Humidity
    00:00 +19°C° 0 mm 1 mps 723 mmHg 71%
    01:00 +18°C° 0 mm 1 mps 723 mmHg 73%
    02:00 +18°C° 0 mm 1 mps 723 mmHg 74%
    03:00 +18°C° 0 mm 1 mps 723 mmHg 75%
    04:00 +16°C° 0 mm 1 mps 723 mmHg 75%
    05:00 +16°C° 0 mm 1 mps 723 mmHg 75%
    06:00 +19°C° 0 mm 1 mps 723 mmHg 70%
    07:00 +21°C° 0 mm 1 mps 724 mmHg 65%
    08:00 +23°C° 0 mm 1 mps 724 mmHg 60%
    09:00 +24°C° 0 mm 2 mps 724 mmHg 56%
    10:00 +25°C° 0 mm 2 mps 725 mmHg 52%
    11:00 +27°C° 0 mm 3 mps 725 mmHg 48%
    12:00 +27°C° 0 mm 2 mps 725 mmHg 46%
    13:00 +27°C° 0 mm 2 mps 725 mmHg 44%
    14:00 +28°C° 0 mm 2 mps 725 mmHg 42%
    15:00 +28°C° 0 mm 2 mps 725 mmHg 43%
    16:00 +28°C° 0 mm 2 mps 725 mmHg 43%
    17:00 +28°C° 0 mm 2 mps 725 mmHg 43%
    18:00 +26°C° 0 mm 2 mps 725 mmHg 48%
    19:00 +24°C° 0 mm 1 mps 725 mmHg 54%
    20:00 +22°C° 0 mm 1 mps 725 mmHg 60%
    21:00 +21°C° 0 mm 1 mps 725 mmHg 61%
    22:00 +21°C° 0 mm 1 mps 725 mmHg 63%
    23:00 +20°C° 0 mm 1 mps 726 mmHg 65%

    Day after tomorrow, 19 July, Friday

    Time Temperature Precipitation Wind Pressure Humidity
    00:00 +20°C° 0 mm 1 mps 726 mmHg 66%
    01:00 +19°C° 0 mm 1 mps 726 mmHg 67%
    02:00 +19°C° 0 mm 1 mps 726 mmHg 69%
    03:00 +18°C° 0 mm 1 mps 726 mmHg 70%
    04:00 +18°C° 0 mm 1 mps 726 mmHg 71%
    05:00 +16°C° 0 mm 0 mps 726 mmHg 72%
    06:00 +20°C° 0 mm 1 mps 727 mmHg 67%
    07:00 +22°C° 0 mm 1 mps 727 mmHg 63%
    08:00 +24°C° 0 mm 1 mps 727 mmHg 59%
    09:00 +25°C° 0 mm 1 mps 728 mmHg 55%
    10:00 +26°C° 0 mm 2 mps 728 mmHg 51%
    11:00 +27°C° 0 mm 2 mps 728 mmHg 48%
    12:00 +28°C° 0 mm 2 mps 728 mmHg 45%
    13:00 +29°C° 0 mm 2 mps 728 mmHg 43%
    14:00 +29°C° 0 mm 3 mps 728 mmHg 41%
    15:00 +29°C° 0 mm 2 mps 727 mmHg 41%
    16:00 +29°C° 0 mm 2 mps 727 mmHg 40%
    17:00 +29°C° 0 mm 2 mps 727 mmHg 40%
    18:00 +27°C° 0 mm 2 mps 727 mmHg 45%
    19:00 +25°C° 0 mm 2 mps 727 mmHg 50%
    20:00 +23°C° 0 mm 2 mps 727 mmHg 56%
    21:00 +22°C° 0 mm 1 mps 727 mmHg 59%
    22:00 +21°C° 0 mm 1 mps 728 mmHg 63%
    23:00 +20°C° 0 mm 1 mps 728 mmHg 66%

    20 July, Saturday

    Time Temperature Precipitation Wind Pressure Humidity
    00:00 +20°C° 0 mm 1 mps 728 mmHg 68%
    01:00 +19°C° 0 mm 1 mps 728 mmHg 70%
    02:00 +19°C° 0 mm 1 mps 728 mmHg 72%
    03:00 +18°C° 0 mm 1 mps 728 mmHg 73%
    04:00 +18°C° 0 mm 1 mps 728 mmHg 75%
    05:00 +16°C° 0 mm 1 mps 728 mmHg 76%
    06:00 +18°C° 0 mm 2 mps 728 mmHg 71%
    07:00 +20°C° 0 mm 2 mps 728 mmHg 66%
    08:00 +23°C° 0 mm 2 mps 728 mmHg 60%
    09:00 +25°C° 0 mm 3 mps 729 mmHg 54%
    10:00 +26°C° 0 mm 3 mps 729 mmHg 47%
    11:00 +28°C° 0 mm 4 mps 729 mmHg 41%
    12:00 +28°C° 0 mm 4 mps 729 mmHg 39%
    13:00 +29°C° 0 mm 4 mps 729 mmHg 38%
    14:00 +30°C° 0 mm 4 mps 729 mmHg 37%
    15:00 +30°C° 0 mm 4 mps 729 mmHg 37%
    16:00 +30°C° 0 mm 4 mps 728 mmHg 37%
    17:00 +30°C° 0 mm 4 mps 728 mmHg 38%
    18:00 +28°C° 0 mm 3 mps 728 mmHg 43%
    19:00 +25°C° 0 mm 2 mps 728 mmHg 49%
    20:00 +23°C° 0 mm 2 mps 729 mmHg 54%
    21:00 +21°C° 0 mm 2 mps 729 mmHg 56%
    22:00 +21°C° 0 mm 1 mps 729 mmHg 58%
    23:00 +20°C° 0 mm 1 mps 729 mmHg 60%

    21 July, Sunday

    Time Temperature Precipitation Wind Pressure Humidity
    00:00 +20°C° 0 mm 1 mps 729 mmHg 61%
    01:00 +20°C° 0 mm 1 mps 729 mmHg 61%
    02:00 +19°C° 0 mm 1 mps 729 mmHg 62%
    03:00 +19°C° 0 mm 1 mps 729 mmHg 63%
    04:00 +19°C° 0 mm 1 mps 729 mmHg 63%
    05:00 +19°C° 0 mm 1 mps 729 mmHg 64%
    06:00 +21°C° 0 mm 1 mps 729 mmHg 61%
    07:00 +21°C° 0 mm 2 mps 729 mmHg 57%
    08:00 +24°C° 0 mm 2 mps 730 mmHg 54%
    09:00 +26°C° 0 mm 2 mps 730 mmHg 50%
    10:00 +28°C° 0 mm 3 mps 730 mmHg 46%
    11:00 +29°C° 0 mm 4 mps 730 mmHg 42%
    12:00 +30°C° 0 mm 4 mps 730 mmHg 40%
    13:00 +32°C° 0 mm 4 mps 730 mmHg 38%
    14:00 +32°C° 0 mm 4 mps 730 mmHg 36%
    15:00 +32°C° 0 mm 4 mps 729 mmHg 36%
    16:00 +32°C° 0 mm 4 mps 729 mmHg 36%
    17:00 +32°C° 0 mm 4 mps 729 mmHg 36%
    18:00 +29°C° 0 mm 3 mps 729 mmHg 42%
    19:00 +27°C° 0 mm 2 mps 729 mmHg 48%
    20:00 +25°C° 0 mm 2 mps 729 mmHg 54%
    21:00 +24°C° 0 mm 2 mps 729 mmHg 55%
    22:00 +23°C° 0 mm 1 mps 729 mmHg 56%
    23:00 +22°C° 0 mm 1 mps 729 mmHg 58%

    22 July, Monday

    Time Temperature Precipitation Wind Pressure Humidity
    00:00 +22°C° 0 mm 1 mps 729 mmHg 59%
    01:00 +21°C° 0 mm 1 mps 729 mmHg 61%
    02:00 +21°C° 0 mm 1 mps 728 mmHg 62%
    03:00 +21°C° 0 mm 1 mps 728 mmHg 63%
    04:00 +20°C° 0 mm 1 mps 728 mmHg 65%
    05:00 +20°C° 0 mm 1 mps 728 mmHg 67%
    06:00 +22°C° 0 mm 1 mps 728 mmHg 63%
    07:00 +24°C° 0 mm 1 mps 728 mmHg 59%
    08:00 +26°C° 0 mm 2 mps 729 mmHg 55%
    09:00 +28°C° 0 mm 2 mps 729 mmHg 50%
    10:00 +29°C° 0 mm 3 mps 729 mmHg 46%
    11:00 +31°C° 0 mm 3 mps 729 mmHg 42%
    12:00 +31°C° 0 mm 3 mps 729 mmHg 40%
    13:00 +33°C° 0 mm 3 mps 728 mmHg 38%
    14:00 +34°C° 0 mm 3 mps 728 mmHg 36%
    15:00 +34°C° 0 mm 3 mps 728 mmHg 37%
    16:00 +33°C° 0 mm 3 mps 727 mmHg 38%
    17:00 +33°C° 0 mm 3 mps 727 mmHg 39%
    18:00 +30°C° 0 mm 2 mps 727 mmHg 44%
    19:00 +28°C° 0 mm 2 mps 727 mmHg 49%
    20:00 +26°C° 0 mm 1 mps 727 mmHg 54%
    21:00 +26°C° 0 mm 1 mps 727 mmHg 56%
    22:00 +25°C° 0 mm 1 mps 727 mmHg 57%
    23:00 +24°C° 0 mm 1 mps 727 mmHg 59%
    Show more